FW9412 Weather Reports


Display with metric or nautical units.
time (UTC)temp
F
wind
direction
speed
MPH
gust
MPH
rain 1hr
in
rain 24hr
in
rain mn
in
humidity
%
barometer
mb
20260905061320 64 159 0.0 0.0 0.00 0.00 0.00 94 1013.0
20260905060814 64 160 0.0 0.0 0.00 0.00 0.00 94 1013.2
20260905060311 64 160 0.0 0.0 0.00 0.00 0.00 94 1013.1
20260905055810 64 159 0.0 0.0 0.00 0.00 0.00 94 1013.0
20260905055306 64 158 0.0 0.0 0.00 0.00 0.00 94 1013.0
20260905054759 64 159 0.0 0.0 0.00 0.00 0.00 95 1012.9
20260905054256 64 160 0.0 0.0 0.00 0.00 0.00 95 1013.1
20260905053755 64 161 0.0 0.0 0.00 0.00 0.00 95 1013.2
20260905053250 64 163 0.0 0.0 0.00 0.00 0.00 94 1013.3
20260905052749 64 163 0.0 0.0 0.00 0.00 0.00 94 1013.1
20260905052244 64 163 0.0 0.0 0.00 0.00 0.00 94 1013.3
20260905051744 64 163 0.0 0.0 0.00 0.00 0.00 94 1013.3
20260905051241 64 160 0.0 0.0 0.00 0.00 0.00 94 1013.3
20260905050737 64 159 0.0 0.0 0.00 0.00 0.00 94 1013.4
20260905050234 64 160 0.0 0.0 0.00 0.00 0.00 94 1013.5
20260905045733 64 159 0.0 0.0 0.00 0.00 0.00 94 1013.4
20260905045229 64 159 0.0 0.0 0.00 0.00 0.00 94 1013.6
20260905044724 64 160 0.0 0.0 0.00 0.00 0.00 94 1013.5
20260905044219 64 159 0.0 0.0 0.00 0.00 0.00 94 1013.5
20260905043718 64 159 0.0 0.0 0.00 0.00 0.00 94 1013.4
20260905043213 64 159 0.0 0.0 0.00 0.00 0.00 94 1013.2
20260905042713 64 160 0.0 0.0 0.00 0.00 0.00 93 1013.3
20260905042212 64 160 0.0 0.0 0.00 0.00 0.00 93 1013.5
20260905041708 64 160 0.0 0.0 0.00 0.00 0.00 93 1013.5
20260905041203 64 160 0.0 0.0 0.00 0.00 0.00 93 1013.3
20260905040658 64 161 0.0 0.0 0.00 0.00 0.00 93 1013.4
20260905040156 65 161 0.0 0.0 0.00 0.00 0.00 93 1013.6
20260905035651 65 163 0.0 0.0 0.00 0.00 0.00 92 1013.4
20260905035148 65 160 0.0 0.0 0.00 0.00 0.00 92 1013.2
20260905034644 65 168 0.0 0.0 0.00 0.00 0.00 92 1013.0
20260905034143 65 158 0.0 0.0 0.00 0.00 0.00 92 1013.3
20260905033642 65 164 0.0 0.0 0.00 0.00 0.00 92 1013.5
20260905033138 65 168 0.0 0.0 0.00 0.00 0.00 91 1013.3
20260905032638 65 169 0.0 0.0 0.00 0.00 0.00 91 1013.3
20260905032132 65 168 0.0 0.0 0.00 0.00 0.00 91 1013.2
20260905031628 65 168 0.0 0.0 0.00 0.00 0.00 91 1013.3
20260905031123 65 168 0.0 0.0 0.00 0.00 0.00 91 1013.2
20260905030618 65 168 0.0 0.0 0.00 0.00 0.00 91 1013.1
20260905030114 65 166 0.0 0.0 0.00 0.00 0.00 90 1013.1
20260905025608 65 167 0.0 0.0 0.00 0.00 0.00 90 1013.3
20260905025104 65 162 0.0 1.0 0.00 0.00 0.00 89 1013.3
20260905024559 65 172 0.0 0.0 0.00 0.00 0.00 89 1013.4
20260905024054 65 169 0.0 0.0 0.00 0.00 0.00 88 1013.2
20260905023549 65 176 0.0 0.0 0.00 0.00 0.00 88 1013.3
20260905023044 65 175 0.0 0.0 0.00 0.00 0.00 87 1013.3
20260905022543 65 176 0.0 1.0 0.00 0.00 0.00 86 1013.4
20260905022039 65 174 0.0 1.0 0.00 0.00 0.00 86 1013.4
20260905021538 65 168 0.0 0.0 0.00 0.00 0.00 86 1013.4
20260905021034 66 167 0.0 0.0 0.00 0.00 0.00 85 1013.3
20260905020533 66 168 0.0 0.0 0.00 0.00 0.00 85 1013.4
20260905020029 66 167 0.0 0.0 0.00 0.00 0.00 85 1013.7
20260905015527 66 175 0.0 0.0 0.00 0.00 0.00 84 1013.7
20260905015022 66 173 0.0 0.0 0.00 0.00 0.00 84 1013.6
20260905014516 66 168 0.0 0.0 0.00 0.00 0.00 84 1013.7
20260905014012 66 168 0.0 0.0 0.00 0.00 0.00 85 1013.6
20260905013508 66 167 0.0 0.0 0.00 0.00 0.00 84 1013.5
20260905013004 66 167 0.0 0.0 0.00 0.00 0.00 83 1013.3
20260905012458 66 167 0.0 0.0 0.00 0.00 0.00 83 1013.5
20260905011954 66 167 0.0 0.0 0.00 0.00 0.00 82 1013.7
20260905011450 66 168 0.0 0.0 0.00 0.00 0.00 81 1013.5
20260905010946 66 167 0.0 0.0 0.00 0.00 0.00 81 1013.5
20260905010441 67 167 0.0 0.0 0.00 0.00 0.00 81 1013.5
20260905005936 67 167 0.0 0.0 0.00 0.00 0.00 81 1013.4
20260905005432 66 168 0.0 0.0 0.00 0.00 0.00 81 1013.6
20260905004932 66 166 0.0 0.0 0.00 0.00 0.00 81 1013.7
20260905004427 66 166 0.0 0.0 0.00 0.00 0.00 82 1013.8
20260905003922 67 166 0.0 0.0 0.00 0.00 0.00 81 1013.7
20260905003419 67 166 0.0 0.0 0.00 0.00 0.00 79 1013.4
20260905002914 67 166 0.0 0.0 0.00 0.00 0.00 78 1013.5
20260905002413 67 166 0.0 0.0 0.00 0.00 0.00 78 1013.5
20260905001908 67 166 0.0 0.0 0.00 0.00 0.00 79 1013.4
20260905001403 67 166 0.0 0.0 0.00 0.00 0.00 81 1013.3
20260905000857 67 166 0.0 0.0 0.00 0.00 0.00 79 1013.4
20260905000355 67 166 0.0 0.0 0.00 0.00 0.00 78 1013.2
20260904235848 67 166 0.0 0.0 0.00 0.00 0.00 78 1013.1
20260904235343 68 166 0.0 0.0 0.00 0.00 0.00 77 1013.3
20260904234838 68 166 0.0 0.0 0.00 0.00 0.00 76 1013.2
20260904234333 68 166 0.0 0.0 0.00 0.00 0.00 76 1013.2
20260904233828 68 166 0.0 0.0 0.00 0.00 0.00 75 1013.3
20260904233324 68 166 0.0 0.0 0.00 0.00 0.00 75 1013.2
20260904232821 68 166 0.0 0.0 0.00 0.00 0.00 75 1013.1
20260904232317 69 166 0.0 0.0 0.00 0.00 0.00 74 1013.1
20260904231813 69 166 0.0 0.0 0.00 0.00 0.00 73 1013.2
20260904231307 69 167 0.0 0.0 0.00 0.00 0.00 72 1013.2
20260904230803 69 162 0.0 0.0 0.00 0.00 0.00 72 1013.2
20260904230301 69 162 0.0 0.0 0.00 0.00 0.00 72 1013.0
20260904225756 69 156 0.0 0.0 0.00 0.00 0.00 71 1013.1
20260904225249 70 168 0.0 0.0 0.00 0.00 0.00 70 1012.9
20260904224749 70 167 0.0 0.0 0.00 0.00 0.00 70 1012.9
20260904224244 70 149 0.0 0.0 0.00 0.00 0.00 70 1012.9
20260904223744 71 165 0.0 0.0 0.00 0.00 0.00 68 1013.2
20260904223239 71 163 0.0 0.0 0.00 0.00 0.00 67 1012.8
20260904222735 72 163 0.0 1.0 0.00 0.00 0.00 66 1012.9
20260904222230 72 164 0.0 1.0 0.00 0.00 0.00 66 1012.8
20260904221729 72 183 1.0 2.0 0.00 0.00 0.00 65 1012.8
20260904221225 72 176 0.0 1.0 0.00 0.00 0.00 66 1012.7
20260904220725 72 139 0.0 1.0 0.00 0.00 0.00 65 1012.7
20260904220219 72 166 0.0 1.0 0.00 0.00 0.00 64 1012.7
20260904215719 72 217 1.0 2.0 0.00 0.00 0.00 63 1013.0
20260904215215 72 164 0.0 1.0 0.00 0.00 0.00 65 1013.1
20260904214710 73 187 1.0 1.0 0.00 0.00 0.00 66 1013.0
20260904214206 73 165 0.0 0.0 0.00 0.00 0.00 68 1012.8
20260904213704 73 140 0.0 1.0 0.00 0.00 0.00 66 1012.9
20260904213200 72 208 1.0 1.0 0.00 0.00 0.00 64 1013.0
20260904212655 73 209 1.0 2.0 0.00 0.00 0.00 65 1013.0
20260904212150 73 40 1.0 2.0 0.00 0.00 0.00 65 1012.9
20260904211644 73 169 0.0 0.0 0.00 0.00 0.00 65 1013.0
20260904211140 73 149 1.0 2.0 0.00 0.00 0.00 66 1012.8
20260904210639 73 172 1.0 1.0 0.00 0.00 0.00 66 1013.2
20260904210135 73 158 0.0 0.0 0.00 0.00 0.00 67 1013.0
20260904205631 73 235 1.0 2.0 0.00 0.00 0.00 66 1012.7
20260904205127 73 164 1.0 2.0 0.00 0.00 0.00 64 1013.0
20260904204622 73 119 1.0 3.0 0.00 0.00 0.00 65 1013.0
20260904204119 73 148 0.0 1.0 0.00 0.00 0.00 64 1013.1
20260904203614 73 195 2.0 2.0 0.00 0.00 0.00 64 1013.1
20260904203111 73 163 0.0 1.0 0.00 0.00 0.00 65 1013.1
20260904202607 74 209 2.0 2.0 0.00 0.00 0.00 66 1013.1
20260904202103 74 112 2.0 2.0 0.00 0.00 0.00 64 1013.3
20260904201602 74 173 2.0 2.0 0.00 0.00 0.00 64 1013.5
20260904201058 74 189 1.0 1.0 0.00 0.00 0.00 64 1013.4
20260904200556 74 174 1.0 1.0 0.00 0.00 0.00 67 1013.4
20260904200052 75 201 1.0 1.0 0.00 0.00 0.00 64 1013.5
20260904195550 74 183 0.0 1.0 0.00 0.00 0.00 64 1013.6
20260904195050 74 161 1.0 1.0 0.00 0.00 0.00 68 1013.6
20260904194544 74 171 2.0 2.0 0.00 0.00 0.00 64 1013.7
20260904194039 74 178 1.0 2.0 0.00 0.00 0.00 65 1013.8
20260904193534 73 181 0.0 1.0 0.00 0.00 0.00 66 1013.6
20260904193031 72 164 0.0 0.0 0.00 0.00 0.00 67 1013.8
20260904192529 73 247 3.0 3.0 0.00 0.00 0.00 67 1013.7
20260904192026 73 169 1.0 2.0 0.00 0.00 0.00 67 1013.8
20260904191523 72 208 1.0 1.0 0.00 0.00 0.00 65 1013.9
20260904191019 73 242 2.0 2.0 0.00 0.00 0.00 65 1014.1
20260904190514 73 156 1.0 2.0 0.00 0.00 0.00 66 1013.9
20260904190010 73 210 0.0 0.0 0.00 0.00 0.00 67 1013.8
20260904185506 74 176 0.0 0.0 0.00 0.00 0.00 65 1013.7
20260904185001 74 202 1.0 2.0 0.00 0.00 0.00 67 1013.9
20260904184501 74 67 2.0 2.0 0.00 0.00 0.00 66 1013.9
20260904183955 74 350 2.0 2.0 0.00 0.00 0.00 68 1013.9
20260904183451 73 191 1.0 2.0 0.00 0.00 0.00 67 1014.1
20260904182946 73 210 1.0 1.0 0.00 0.00 0.00 68 1013.9
20260904182442 73 166 0.0 1.0 0.00 0.00 0.00 70 1014.3
20260904181941 73 153 0.0 0.0 0.00 0.00 0.00 69 1014.2
20260904181437 73 178 1.0 1.0 0.00 0.00 0.00 68 1014.3
20260904180932 74 286 0.0 1.0 0.00 0.00 0.00 68 1014.2
20260904180427 74 207 2.0 2.0 0.00 0.00 0.00 71 1014.1
20260904175926 74 192 1.0 2.0 0.00 0.00 0.00 70 1014.2
20260904175425 73 249 2.0 2.0 0.00 0.00 0.00 69 1014.3
20260904174920 74 240 2.0 2.0 0.00 0.00 0.00 68 1014.4
20260904174415 72 129 0.0 1.0 0.00 0.00 0.00 73 1014.7
20260904173912 73 181 1.0 2.0 0.00 0.00 0.00 72 1014.4
20260904173407 73 184 1.0 1.0 0.00 0.00 0.00 70 1014.5
20260904172903 73 186 1.0 2.0 0.00 0.00 0.00 70 1014.3
20260904172402 73 144 1.0 1.0 0.00 0.00 0.00 71 1014.5
20260904171857 73 184 1.0 1.0 0.00 0.00 0.00 69 1014.4
20260904171352 73 180 0.0 0.0 0.00 0.00 0.00 70 1014.7
20260904170848 73 189 1.0 2.0 0.00 0.00 0.00 69 1014.3
20260904170343 73 203 2.0 2.0 0.00 0.00 0.00 71 1014.7
20260904165838 73 222 1.0 2.0 0.00 0.00 0.00 72 1014.7
20260904165331 72 203 1.0 2.0 0.00 0.00 0.00 71 1014.7
20260904164827 72 196 1.0 1.0 0.00 0.00 0.00 72 1014.7
20260904164321 72 184 1.0 1.0 0.00 0.00 0.00 71 1014.7
20260904163818 72 175 1.0 1.0 0.00 0.00 0.00 72 1014.7
20260904163317 72 188 2.0 2.0 0.00 0.00 0.00 71 1014.9
20260904162817 73 167 0.0 1.0 0.00 0.00 0.00 72 1014.5
20260904162312 73 214 1.0 2.0 0.00 0.00 0.00 72 1014.3
20260904161807 72 161 0.0 0.0 0.00 0.00 0.00 71 1014.5
20260904161302 73 143 0.0 1.0 0.00 0.00 0.00 71 1014.6
20260904160757 73 177 0.0 1.0 0.00 0.00 0.00 72 1014.7
20260904160252 73 140 0.0 1.0 0.00 0.00 0.00 72 1014.7
20260904155752 73 186 1.0 1.0 0.00 0.00 0.00 72 1014.3
20260904155247 73 157 1.0 1.0 0.00 0.00 0.00 71 1014.5
20260904154745 72 178 0.0 0.0 0.00 0.00 0.00 71 1014.6
20260904154241 72 178 1.0 1.0 0.00 0.00 0.00 75 1014.8
20260904153736 72 200 1.0 1.0 0.00 0.00 0.00 74 1014.5
20260904153231 72 163 0.0 0.0 0.00 0.00 0.00 76 1014.5
20260904152728 71 102 1.0 2.0 0.00 0.00 0.00 80 1014.4
20260904152228 71 173 0.0 1.0 0.00 0.00 0.00 77 1014.6
20260904151723 71 358 0.0 1.0 0.00 0.00 0.00 76 1014.6
20260904151222 71 169 0.0 0.0 0.00 0.00 0.00 78 1014.4
20260904150718 71 192 1.0 1.0 0.00 0.00 0.00 78 1014.6
20260904150213 71 171 1.0 2.0 0.00 0.00 0.00 79 1014.6
20260904145711 71 169 0.0 1.0 0.00 0.00 0.00 80 1014.7
20260904145207 71 250 2.0 2.0 0.00 0.00 0.00 77 1014.7
20260904144702 70 137 1.0 2.0 0.00 0.00 0.00 79 1014.6
20260904144158 70 191 1.0 1.0 0.00 0.00 0.00 84 1014.6
20260904143653 69 98 3.0 3.0 0.00 0.00 0.00 83 1014.5
20260904143149 69 130 0.0 1.0 0.00 0.00 0.00 85 1014.4
20260904142646 69 166 0.0 0.0 0.00 0.00 0.00 87 1014.4
20260904142141 69 163 0.0 0.0 0.00 0.00 0.00 88 1014.8
20260904141636 69 177 1.0 1.0 0.00 0.00 0.00 88 1014.5
20260904141132 69 154 0.0 1.0 0.00 0.00 0.00 88 1014.8
20260904140628 69 183 0.0 1.0 0.00 0.00 0.00 89 1014.6
20260904140127 69 171 0.0 0.0 0.00 0.00 0.00 90 1014.7
20260904135627 68 184 0.0 1.0 0.00 0.00 0.00 90 1014.6
20260904135123 68 186 0.0 1.0 0.00 0.00 0.00 91 1014.7
20260904134619 68 169 0.0 0.0 0.00 0.00 0.00 92 1014.8
20260904134117 68 189 1.0 2.0 0.00 0.00 0.00 93 1014.9
20260904133613 68 167 0.0 0.0 0.00 0.00 0.00 93 1014.6
20260904133108 68 219 0.0 0.0 0.00 0.00 0.00 94 1014.7
20260904132608 67 188 0.0 0.0 0.00 0.00 0.00 94 1014.8
20260904132103 67 176 0.0 0.0 0.00 0.00 0.00 95 1014.8
20260904131603 66 197 0.0 0.0 0.00 0.00 0.00 95 1014.9
20260904131058 66 187 0.0 0.0 0.00 0.00 0.00 95 1014.9
20260904130558 66 184 0.0 0.0 0.00 0.00 0.00 96 1014.6
20260904130053 66 195 0.0 0.0 0.00 0.00 0.00 96 1014.5
20260904125549 66 186 0.0 0.0 0.00 0.00 0.00 96 1014.5
20260904125044 66 164 0.0 0.0 0.00 0.00 0.00 95 1014.4
20260904124539 66 175 0.0 0.0 0.00 0.00 0.00 95 1014.3
20260904124035 66 185 0.0 0.0 0.00 0.00 0.00 95 1014.5
20260904123535 66 178 0.0 0.0 0.00 0.00 0.00 95 1014.7
20260904123030 66 184 0.0 0.0 0.00 0.00 0.00 95 1014.5
20260904122525 66 173 0.0 0.0 0.00 0.00 0.00 95 1014.7
20260904122020 66 175 0.0 0.0 0.00 0.00 0.00 96 1014.7
20260904121515 65 197 0.0 0.0 0.00 0.00 0.00 96 1014.8
20260904121011 65 196 0.0 0.0 0.00 0.00 0.00 96 1014.4
20260904120507 65 199 0.0 0.0 0.00 0.00 0.00 96 1014.7
20260904120002 65 184 0.0 0.0 0.00 0.00 0.00 96 1014.7
20260904115457 65 173 0.0 0.0 0.00 0.00 0.00 96 1014.5
20260904114956 65 189 0.0 0.0 0.00 0.00 0.00 96 1014.4
20260904114452 64 197 0.0 0.0 0.00 0.00 0.00 96 1014.6
20260904113947 64 184 0.0 0.0 0.00 0.00 0.00 96 1014.4
20260904113446 64 188 0.0 0.0 0.00 0.00 0.00 96 1014.6
20260904112945 64 177 0.0 0.0 0.00 0.00 0.00 97 1014.5
20260904112442 64 184 0.0 0.0 0.00 0.00 0.00 97 1014.2
20260904111937 64 171 0.0 0.0 0.00 0.00 0.00 97 1014.2
20260904111433 64 174 0.0 0.0 0.00 0.00 0.00 97 1014.3
20260904110928 64 166 0.0 0.0 0.00 0.00 0.00 97 1014.5
20260904110427 64 174 0.0 0.0 0.00 0.00 0.00 97 1014.4
20260904105922 64 169 0.0 0.0 0.00 0.00 0.00 97 1014.1
20260904105417 64 174 0.0 0.0 0.00 0.00 0.00 96 1014.1
20260904104912 64 193 0.0 0.0 0.00 0.00 0.00 96 1014.2
20260904104407 64 171 0.0 0.0 0.00 0.00 0.00 96 1014.1
20260904103904 64 184 0.0 0.0 0.00 0.00 0.00 96 1013.9
20260904103404 64 189 0.0 0.0 0.00 0.00 0.00 96 1014.1
20260904102901 64 200 0.0 0.0 0.00 0.00 0.00 96 1013.8
20260904102355 64 177 0.0 0.0 0.00 0.00 0.00 96 1014.2
20260904101851 65 177 0.0 0.0 0.00 0.00 0.00 96 1014.1
20260904101348 65 172 0.0 0.0 0.00 0.00 0.00 96 1013.6
20260904100843 65 185 0.0 0.0 0.00 0.00 0.00 96 1013.8
20260904100339 65 180 0.0 0.0 0.00 0.00 0.00 96 1013.4
20260904095834 65 172 0.0 0.0 0.00 0.00 0.00 96 1013.6
20260904095328 65 177 0.0 0.0 0.00 0.00 0.00 96 1013.5
20260904094823 65 175 0.0 0.0 0.00 0.00 0.00 96 1013.6
20260904094318 65 170 0.0 0.0 0.00 0.00 0.00 96 1013.5
20260904093814 65 171 0.0 0.0 0.00 0.00 0.00 96 1013.6
20260904093309 65 170 0.0 0.0 0.00 0.00 0.00 96 1013.4
20260904092804 65 173 0.0 0.0 0.00 0.00 0.00 96 1013.5
20260904092301 65 178 0.0 0.0 0.00 0.00 0.00 96 1013.3
20260904091757 65 178 0.0 0.0 0.00 0.00 0.00 96 1013.3
20260904091256 66 170 0.0 0.0 0.00 0.00 0.00 96 1013.5
20260904090752 66 171 0.0 0.0 0.00 0.00 0.00 96 1013.6
20260904090248 66 174 0.0 0.0 0.00 0.00 0.00 96 1013.3
20260904085742 66 180 0.0 0.0 0.00 0.00 0.00 96 1013.3
20260904085238 66 171 0.0 0.0 0.00 0.00 0.00 96 1013.3
20260904084732 66 171 0.0 0.0 0.00 0.00 0.00 96 1013.2
20260904084228 66 171 0.0 0.0 0.00 0.00 0.00 96 1013.3
20260904083725 66 177 0.0 0.0 0.00 0.00 0.00 97 1013.0
20260904083221 66 174 0.0 0.0 0.00 0.00 0.00 97 1013.2
20260904082720 66 171 0.0 0.0 0.00 0.00 0.00 97 1013.1
20260904082216 66 169 0.0 0.0 0.00 0.00 0.00 97 1013.0
20260904081711 66 178 0.0 0.0 0.00 0.00 0.00 97 1012.9
20260904081207 66 181 0.0 0.0 0.00 0.00 0.00 97 1012.8
20260904080702 66 174 0.0 0.0 0.00 0.00 0.00 97 1012.9
20260904080158 66 171 0.0 0.0 0.00 0.00 0.00 97 1012.8
20260904075655 67 174 0.0 0.0 0.00 0.00 0.00 97 1013.1
20260904075149 67 185 0.0 0.0 0.00 0.00 0.00 97 1012.8
20260904074648 67 170 0.0 0.0 0.00 0.00 0.00 97 1012.8
20260904074143 67 172 0.0 0.0 0.00 0.00 0.00 97 1012.6
20260904073638 67 199 0.0 0.0 0.00 0.00 0.00 97 1012.8
20260904073134 67 169 0.0 0.0 0.00 0.00 0.00 97 1012.6
20260904072630 67 156 0.0 0.0 0.00 0.00 0.00 97 1012.6
20260904072125 67 176 0.0 0.0 0.00 0.00 0.00 97 1012.5
20260904071620 67 177 0.0 0.0 0.00 0.00 0.00 97 1012.5
20260904071115 67 174 0.0 0.0 0.00 0.00 0.00 97 1012.6
20260904070614 67 186 0.0 0.0 0.00 0.00 0.00 97 1012.7
20260904070109 67 181 0.0 0.0 0.00 0.00 0.00 97 1012.7
20260904065604 67 172 0.0 0.0 0.00 0.00 0.00 97 1012.7
20260904065100 67 171 0.0 0.0 0.00 0.00 0.00 97 1012.5
20260904064555 67 174 0.0 0.0 0.00 0.00 0.00 97 1012.4
20260904064050 67 169 0.0 0.0 0.00 0.00 0.00 97 1012.5
20260904063546 68 170 0.0 0.0 0.00 0.00 0.00 97 1012.7
20260904063041 68 169 0.0 0.0 0.00 0.00 0.00 97 1012.5
20260904062538 68 175 0.0 0.0 0.00 0.00 0.00 97 1012.8
20260904062033 68 179 0.0 1.0 0.00 0.00 0.00 97 1012.7
20260904061529 68 182 1.0 1.0 0.00 0.00 0.00 97 1012.9